Time,TemperatureF,DewpointF,PressureIn,WindDirection,WindDirectionDegrees,WindSpeedMPH,WindSpeedGustMPH,Humidity,HourlyPrecipIn,Conditions,Clouds,dailyrainin,SolarRadiationWatts/m^2,SoftwareType,DateUTC
2013-08-17 00:00:00,74.4,50.4,29.87,ESE,119,0.0,7.0,43,0.00,,,0.00,0,Wunderground v.1.15,2013-08-17 07:00:00,
2013-08-17 00:10:00,74.0,50.1,29.86,ESE,119,0.0,7.0,43,0.00,,,0.00,0,Wunderground v.1.15,2013-08-17 07:10:00,
2013-08-17 00:20:00,73.7,49.8,29.86,ESE,119,0.0,7.0,43,0.00,,,0.00,0,Wunderground v.1.15,2013-08-17 07:20:00,
2013-08-17 00:30:00,73.6,49.7,29.86,ESE,119,0.0,7.0,43,0.00,,,0.00,0,Wunderground v.1.15,2013-08-17 07:30:00,
2013-08-17 00:40:00,73.4,50.2,29.86,ESE,119,0.0,7.0,44,0.00,,,0.00,0,Wunderground v.1.15,2013-08-17 07:40:00,
2013-08-17 00:50:00,73.2,50.0,29.86,ESE,119,0.0,7.0,44,0.00,,,0.00,0,Wunderground v.1.15,2013-08-17 07:50:00,
2013-08-17 01:00:00,73.0,50.4,29.86,ESE,119,0.0,7.0,45,0.00,,,0.00,0,Wunderground v.1.15,2013-08-17 08:00:00,
2013-08-17 01:10:00,72.7,50.7,29.86,ESE,119,0.0,7.0,46,0.00,,,0.00,0,Wunderground v.1.15,2013-08-17 08:10:00,
2013-08-17 01:20:00,72.2,53.1,29.86,ESE,119,0.0,7.0,51,0.00,,,0.00,0,Wunderground v.1.15,2013-08-17 08:20:00,
2013-08-17 01:30:00,71.3,50.6,29.86,ESE,119,0.0,7.0,48,0.00,,,0.00,0,Wunderground v.1.15,2013-08-17 08:30:00,
2013-08-17 01:40:00,71.1,49.8,29.85,ESE,119,0.0,7.0,47,0.00,,,0.00,0,Wunderground v.1.15,2013-08-17 08:40:00,
2013-08-17 01:50:00,71.7,47.4,29.85,ESE,109,2.0,7.0,42,0.00,,,0.00,0,Wunderground v.1.15,2013-08-17 08:50:00,
2013-08-17 02:00:00,71.7,51.0,29.85,ESE,113,1.0,1.0,48,0.00,,,0.00,0,Wunderground v.1.15,2013-08-17 09:00:00,
2013-08-17 02:10:00,71.2,51.1,29.85,ESE,113,0.0,7.0,49,0.00,,,0.00,0,Wunderground v.1.15,2013-08-17 09:10:00,
2013-08-17 02:20:00,70.4,50.3,29.85,ESE,113,0.0,7.0,49,0.00,,,0.00,0,Wunderground v.1.15,2013-08-17 09:20:00,
2013-08-17 02:30:00,69.9,50.4,29.85,ESE,113,0.0,7.0,50,0.00,,,0.00,0,Wunderground v.1.15,2013-08-17 09:30:00,
2013-08-17 02:40:00,69.8,50.9,29.85,ESE,113,0.0,7.0,51,0.00,,,0.00,0,Wunderground v.1.15,2013-08-17 09:40:00,
2013-08-17 02:50:00,69.7,50.8,29.85,ESE,113,0.0,7.0,51,0.00,,,0.00,0,Wunderground v.1.15,2013-08-17 09:50:00,
2013-08-17 03:00:00,69.5,51.1,29.84,ESE,113,0.0,7.0,52,0.00,,,0.00,0,Wunderground v.1.15,2013-08-17 10:00:00,
2013-08-17 03:10:00,69.5,50.6,29.84,ESE,113,0.0,7.0,51,0.00,,,0.00,0,Wunderground v.1.15,2013-08-17 10:10:00,
2013-08-17 03:20:00,69.4,49.4,29.85,ESE,113,0.0,7.0,49,0.00,,,0.00,0,Wunderground v.1.15,2013-08-17 10:20:00,
2013-08-17 03:30:00,69.3,48.8,29.85,ESE,113,0.0,7.0,48,0.00,,,0.00,0,Wunderground v.1.15,2013-08-17 10:30:00,
2013-08-17 03:40:00,69.0,48.5,29.85,ESE,113,0.0,7.0,48,0.00,,,0.00,0,Wunderground v.1.15,2013-08-17 10:40:00,
2013-08-17 03:50:00,69.0,48.5,29.84,ESE,113,0.0,7.0,48,0.00,,,0.00,0,Wunderground v.1.15,2013-08-17 10:50:00,
2013-08-17 04:00:00,69.0,48.5,29.84,ESE,113,0.0,7.0,48,0.00,,,0.00,0,Wunderground v.1.15,2013-08-17 11:00:00,
2013-08-17 04:10:00,69.1,48.0,29.84,ESE,113,0.0,7.0,47,0.00,,,0.00,0,Wunderground v.1.15,2013-08-17 11:10:00,
2013-08-17 04:20:00,70.0,48.3,29.84,ESE,113,0.0,7.0,46,0.00,,,0.00,0,Wunderground v.1.15,2013-08-17 11:20:00,
2013-08-17 04:29:00,70.2,48.4,29.84,ESE,113,0.0,7.0,46,0.00,,,0.00,0,Wunderground v.1.15,2013-08-17 11:29:00,
2013-08-17 04:40:00,70.1,48.4,29.84,ESE,113,0.0,7.0,46,0.00,,,0.00,0,Wunderground v.1.15,2013-08-17 11:40:00,
2013-08-17 04:49:00,70.1,48.4,29.83,ESE,113,0.0,7.0,46,0.00,,,0.00,0,Wunderground v.1.15,2013-08-17 11:49:00,
2013-08-17 05:00:00,70.1,48.9,29.84,ESE,113,0.0,7.0,47,0.00,,,0.00,0,Wunderground v.1.15,2013-08-17 12:00:00,
2013-08-17 05:09:00,69.8,49.2,29.84,ESE,113,0.0,7.0,48,0.00,,,0.00,0,Wunderground v.1.15,2013-08-17 12:09:00,
2013-08-17 05:20:00,69.6,49.0,29.83,ESE,113,0.0,7.0,48,0.00,,,0.00,0,Wunderground v.1.15,2013-08-17 12:20:00,
2013-08-17 05:30:00,69.7,49.1,29.83,ESE,113,0.0,7.0,48,0.00,,,0.00,0,Wunderground v.1.15,2013-08-17 12:30:00,
2013-08-17 06:10:00,70.4,49.2,29.84,ESE,113,0.0,7.0,47,0.00,,,0.00,0,Wunderground v.1.15,2013-08-17 13:10:00,
2013-08-17 06:20:00,70.4,49.8,29.84,ESE,113,0.0,7.0,48,0.00,,,0.00,0,Wunderground v.1.15,2013-08-17 13:20:00,
2013-08-17 06:30:00,70.5,50.4,29.85,ESE,113,0.0,7.0,49,0.00,,,0.00,5,Wunderground v.1.15,2013-08-17 13:30:00,
2013-08-17 06:40:00,70.5,50.4,29.85,ESE,113,0.0,7.0,49,0.00,,,0.00,9,Wunderground v.1.15,2013-08-17 13:40:00,
2013-08-17 06:50:00,70.8,50.7,29.85,ESE,113,0.0,7.0,49,0.00,,,0.00,11,Wunderground v.1.15,2013-08-17 13:50:00,
2013-08-17 07:00:00,70.8,50.1,29.84,ESE,112,0.0,7.0,48,0.00,,,0.00,12,Wunderground v.1.15,2013-08-17 14:00:00,
2013-08-17 07:10:00,71.1,49.8,29.84,ESE,113,0.0,7.0,47,0.00,,,0.00,14,Wunderground v.1.15,2013-08-17 14:10:00,
2013-08-17 07:20:00,71.3,50.6,29.85,ESE,113,1.0,7.0,48,0.00,,,0.00,16,Wunderground v.1.15,2013-08-17 14:20:00,
2013-08-17 07:30:00,71.6,51.4,29.85,ESE,112,0.0,7.0,49,0.00,,,0.00,18,Wunderground v.1.15,2013-08-17 14:30:00,
2013-08-17 07:40:00,72.2,52.0,29.85,ESE,113,0.0,7.0,49,0.00,,,0.00,19,Wunderground v.1.15,2013-08-17 14:40:00,
2013-08-17 07:50:00,72.9,52.6,29.85,ESE,113,0.0,7.0,49,0.00,,,0.00,21,Wunderground v.1.15,2013-08-17 14:50:00,
2013-08-17 08:00:00,73.9,52.4,29.85,ESE,112,0.0,7.0,47,0.00,,,0.00,21,Wunderground v.1.15,2013-08-17 15:00:00,
2013-08-17 08:10:00,75.4,52.6,29.86,ESE,113,0.0,7.0,45,0.00,,,0.00,23,Wunderground v.1.15,2013-08-17 15:10:00,
2013-08-17 08:20:00,76.4,52.9,29.86,ESE,113,0.0,7.0,44,0.00,,,0.00,25,Wunderground v.1.15,2013-08-17 15:20:00,
2013-08-17 08:30:00,77.4,53.8,29.86,ESE,113,0.0,7.0,44,0.00,,,0.00,155,Wunderground v.1.15,2013-08-17 15:30:00,
2013-08-17 08:40:00,78.7,53.7,29.86,ESE,112,1.0,1.0,42,0.00,,,0.00,369,Wunderground v.1.15,2013-08-17 15:40:00,
2013-08-17 08:49:00,79.5,54.4,29.86,ESE,113,1.0,1.0,42,0.00,,,0.00,28,Wunderground v.1.15,2013-08-17 15:49:00,
2013-08-17 09:00:00,79.7,54.6,29.86,SE,145,1.0,7.0,42,0.00,,,0.00,28,Wunderground v.1.15,2013-08-17 16:00:00,
2013-08-17 09:09:00,79.7,54.6,29.86,SSE,150,1.0,7.0,42,0.00,,,0.00,28,Wunderground v.1.15,2013-08-17 16:09:00,
2013-08-17 09:20:00,79.6,53.8,29.86,SSE,161,2.0,7.0,41,0.00,,,0.00,30,Wunderground v.1.15,2013-08-17 16:20:00,
2013-08-17 09:29:00,79.9,54.1,29.86,SSE,161,1.0,7.0,41,0.00,,,0.00,577,Wunderground v.1.15,2013-08-17 16:29:00,
2013-08-17 09:40:00,80.6,54.0,29.86,SSE,161,2.0,2.0,40,0.00,,,0.00,610,Wunderground v.1.15,2013-08-17 16:40:00,
2013-08-17 09:50:00,81.8,53.7,29.86,SSE,163,0.0,7.0,38,0.00,,,0.00,643,Wunderground v.1.15,2013-08-17 16:50:00,
2013-08-17 10:00:00,82.6,54.4,29.86,SSE,163,1.0,7.0,38,0.00,,,0.00,671,Wunderground v.1.15,2013-08-17 17:00:00,
2013-08-17 10:10:00,83.2,53.5,29.86,SSW,199,2.0,7.0,36,0.00,,,0.00,694,Wunderground v.1.15,2013-08-17 17:10:00,
2013-08-17 10:20:00,84.1,54.3,29.86,SSW,209,2.0,7.0,36,0.00,,,0.00,721,Wunderground v.1.15,2013-08-17 17:20:00,
2013-08-17 10:30:00,84.9,54.2,29.86,SW,215,2.0,7.0,35,0.00,,,0.00,749,Wunderground v.1.15,2013-08-17 17:30:00,
2013-08-17 10:39:00,86.0,53.5,29.85,SW,215,1.0,1.0,33,0.00,,,0.00,770,Wunderground v.1.15,2013-08-17 17:39:00,
2013-08-17 10:50:00,86.1,54.5,29.85,SW,232,2.0,7.0,34,0.00,,,0.00,789,Wunderground v.1.15,2013-08-17 17:50:00,
2013-08-17 11:00:00,86.1,54.5,29.85,WSW,250,3.0,3.0,34,0.00,,,0.00,809,Wunderground v.1.15,2013-08-17 18:00:00,
2013-08-17 11:10:00,86.9,54.3,29.85,West,277,2.0,7.0,33,0.00,,,0.00,826,Wunderground v.1.15,2013-08-17 18:10:00,
2013-08-17 11:20:00,87.2,53.7,29.85,WNW,284,3.0,7.0,32,0.00,,,0.00,840,Wunderground v.1.15,2013-08-17 18:20:00,
2013-08-17 11:30:00,87.7,52.4,29.85,WNW,294,3.0,7.0,30,0.00,,,0.00,851,Wunderground v.1.15,2013-08-17 18:30:00,
2013-08-17 11:40:00,87.2,52.0,29.85,WNW,298,4.0,4.0,30,0.00,,,0.00,867,Wunderground v.1.15,2013-08-17 18:40:00,
2013-08-17 11:50:00,87.9,52.6,29.85,NW,304,4.0,4.0,30,0.00,,,0.00,879,Wunderground v.1.15,2013-08-17 18:50:00,
2013-08-17 12:00:00,88.5,51.2,29.84,West,259,3.0,3.0,28,0.00,,,0.00,891,Wunderground v.1.15,2013-08-17 19:00:00,
2013-08-17 12:10:00,88.9,51.6,29.84,WNW,300,4.0,4.0,28,0.00,,,0.00,902,Wunderground v.1.15,2013-08-17 19:10:00,
2013-08-17 12:20:00,89.9,51.4,29.83,West,281,2.0,2.0,27,0.00,,,0.00,909,Wunderground v.1.15,2013-08-17 19:20:00,
2013-08-17 12:30:00,90.6,51.0,29.83,West,279,2.0,2.0,26,0.00,,,0.00,914,Wunderground v.1.15,2013-08-17 19:30:00,
2013-08-17 12:40:00,90.6,51.0,29.83,WNW,293,3.0,7.0,26,0.00,,,0.00,918,Wunderground v.1.15,2013-08-17 19:40:00,
2013-08-17 12:50:00,91.6,50.8,29.82,WNW,300,2.0,7.0,25,0.00,,,0.00,921,Wunderground v.1.15,2013-08-17 19:50:00,
2013-08-17 13:00:00,91.9,50.0,29.82,WNW,297,4.0,4.0,24,0.00,,,0.00,923,Wunderground v.1.15,2013-08-17 20:00:00,
2013-08-17 13:10:00,92.1,51.2,29.82,West,273,3.0,3.0,25,0.00,,,0.00,919,Wunderground v.1.15,2013-08-17 20:10:00,
2013-08-17 13:20:00,92.8,50.7,29.82,West,264,3.0,7.0,24,0.00,,,0.00,916,Wunderground v.1.15,2013-08-17 20:20:00,
2013-08-17 13:30:00,92.1,50.1,29.81,West,277,5.0,7.0,24,0.00,,,0.00,911,Wunderground v.1.15,2013-08-17 20:30:00,
2013-08-17 13:39:00,92.0,50.0,29.81,West,274,4.0,4.0,24,0.00,,,0.00,902,Wunderground v.1.15,2013-08-17 20:39:00,
2013-08-17 13:50:00,92.3,50.3,29.81,WSW,244,4.0,4.0,24,0.00,,,0.00,893,Wunderground v.1.15,2013-08-17 20:50:00,
2013-08-17 13:59:00,92.9,50.8,29.80,WSW,254,2.0,7.0,24,0.00,,,0.00,893,Wunderground v.1.15,2013-08-17 20:59:00,
2013-08-17 14:10:00,93.6,59.3,29.80,SSE,149,4.0,4.0,32,0.00,,,0.00,858,Wunderground v.1.15,2013-08-17 21:10:00,
2013-08-17 14:19:00,93.2,59.8,29.79,SSW,200,5.0,5.0,33,0.00,,,0.00,851,Wunderground v.1.15,2013-08-17 21:19:00,
2013-08-17 14:30:00,93.5,58.3,29.79,SSW,192,3.0,11.0,31,0.00,,,0.00,830,Wunderground v.1.15,2013-08-17 21:30:00,
2013-08-17 14:40:00,93.4,59.1,29.79,SSE,157,3.0,7.0,32,0.00,,,0.00,817,Wunderground v.1.15,2013-08-17 21:40:00,
2013-08-17 14:50:00,94.4,58.2,29.78,SSE,163,3.0,8.0,30,0.00,,,0.00,802,Wunderground v.1.15,2013-08-17 21:50:00,
2013-08-17 15:00:00,93.4,58.2,29.78,South,178,5.0,5.0,31,0.00,,,0.00,780,Wunderground v.1.15,2013-08-17 22:00:00,
2013-08-17 15:10:00,93.8,57.7,29.77,SE,138,3.0,7.0,30,0.00,,,0.00,758,Wunderground v.1.15,2013-08-17 22:10:00,
2013-08-17 15:20:00,93.6,56.6,29.77,SSE,153,4.0,7.0,29,0.00,,,0.00,740,Wunderground v.1.15,2013-08-17 22:20:00,
2013-08-17 15:30:00,93.7,54.7,29.77,South,173,4.0,7.0,27,0.00,,,0.00,714,Wunderground v.1.15,2013-08-17 22:30:00,
2013-08-17 15:40:00,93.5,53.5,29.76,SSE,156,5.0,7.0,26,0.00,,,0.00,689,Wunderground v.1.15,2013-08-17 22:40:00,
2013-08-17 15:50:00,93.8,53.7,29.76,ESE,113,4.0,7.0,26,0.00,,,0.00,666,Wunderground v.1.15,2013-08-17 22:50:00,
2013-08-17 16:00:00,93.5,53.5,29.75,SE,136,4.0,4.0,26,0.00,,,0.00,640,Wunderground v.1.15,2013-08-17 23:00:00,
2013-08-17 16:09:00,94.0,53.9,29.75,SSE,157,3.0,3.0,26,0.00,,,0.00,608,Wunderground v.1.15,2013-08-17 23:09:00,
2013-08-17 16:20:00,94.4,53.2,29.75,SSE,164,3.0,3.0,25,0.00,,,0.00,582,Wunderground v.1.15,2013-08-17 23:20:00,
2013-08-17 16:29:00,94.2,53.0,29.75,SE,144,4.0,4.0,25,0.00,,,0.00,550,Wunderground v.1.15,2013-08-17 23:29:00,
2013-08-17 16:40:00,93.7,52.6,29.75,SSE,152,5.0,5.0,25,0.00,,,0.00,517,Wunderground v.1.15,2013-08-17 23:40:00,
2013-08-17 16:49:00,92.9,51.9,29.75,SSE,155,5.0,5.0,25,0.00,,,0.00,487,Wunderground v.1.15,2013-08-17 23:49:00,
2013-08-17 17:00:00,92.9,51.9,29.75,ESE,123,4.0,4.0,25,0.00,,,0.00,454,Wunderground v.1.15,2013-08-18 00:00:00,
2013-08-17 17:10:00,92.4,51.5,29.75,SSE,152,5.0,7.0,25,0.00,,,0.00,422,Wunderground v.1.15,2013-08-18 00:10:00,
2013-08-17 17:20:00,92.1,51.2,29.74,SSE,157,5.0,5.0,25,0.00,,,0.00,387,Wunderground v.1.15,2013-08-18 00:20:00,
2013-08-17 17:30:00,91.8,49.9,29.74,ESE,120,5.0,9.0,24,0.00,,,0.00,355,Wunderground v.1.15,2013-08-18 00:30:00,
2013-08-17 17:40:00,91.0,49.2,29.74,ESE,102,5.0,9.0,24,0.00,,,0.00,320,Wunderground v.1.15,2013-08-18 00:40:00,
2013-08-17 17:50:00,90.5,48.8,29.74,South,187,5.0,5.0,24,0.00,,,0.00,285,Wunderground v.1.15,2013-08-18 00:50:00,
2013-08-17 18:00:00,90.1,49.5,29.73,SE,141,5.0,7.0,25,0.00,,,0.00,248,Wunderground v.1.15,2013-08-18 01:00:00,
2013-08-17 18:10:00,89.5,50.1,29.73,SE,137,5.0,7.0,26,0.00,,,0.00,211,Wunderground v.1.15,2013-08-18 01:10:00,
2013-08-17 18:19:00,88.8,49.5,29.73,ESE,115,5.0,5.0,26,0.00,,,0.00,171,Wunderground v.1.15,2013-08-18 01:19:00,
2013-08-17 18:30:00,88.2,49.0,29.73,ESE,122,4.0,7.0,26,0.00,,,0.00,130,Wunderground v.1.15,2013-08-18 01:30:00,
2013-08-17 18:39:00,88.0,48.8,29.73,ESE,115,3.0,7.0,26,0.00,,,0.00,95,Wunderground v.1.15,2013-08-18 01:39:00,
2013-08-17 18:50:00,87.8,48.6,29.73,SSE,163,2.0,7.0,26,0.00,,,0.00,40,Wunderground v.1.15,2013-08-18 01:50:00,
2013-08-17 19:00:00,86.8,47.8,29.74,SE,125,4.0,7.0,26,0.00,,,0.00,19,Wunderground v.1.15,2013-08-18 02:00:00,
2013-08-17 19:10:00,85.7,47.9,29.74,ESE,109,4.0,4.0,27,0.00,,,0.00,19,Wunderground v.1.15,2013-08-18 02:10:00,
2013-08-17 19:20:00,85.0,47.3,29.74,ESE,110,3.0,7.0,27,0.00,,,0.00,12,Wunderground v.1.15,2013-08-18 02:20:00,
2013-08-17 19:30:00,84.1,47.5,29.74,SE,134,4.0,4.0,28,0.00,,,0.00,7,Wunderground v.1.15,2013-08-18 02:30:00,
2013-08-17 19:40:00,83.3,47.7,29.74,ESE,118,3.0,7.0,29,0.00,,,0.00,0,Wunderground v.1.15,2013-08-18 02:40:00,
2013-08-17 19:50:00,82.5,47.9,29.74,SE,125,4.0,7.0,30,0.00,,,0.00,0,Wunderground v.1.15,2013-08-18 02:50:00,
2013-08-17 20:00:00,81.8,48.2,29.74,SE,133,4.0,7.0,31,0.00,,,0.00,0,Wunderground v.1.15,2013-08-18 03:00:00,
2013-08-17 20:10:00,81.6,47.2,29.75,ESE,123,3.0,3.0,30,0.00,,,0.00,0,Wunderground v.1.15,2013-08-18 03:10:00,
2013-08-17 20:20:00,81.4,47.9,29.75,ESE,122,2.0,7.0,31,0.00,,,0.00,0,Wunderground v.1.15,2013-08-18 03:20:00,
2013-08-17 20:29:00,81.1,47.6,29.75,ESE,115,1.0,7.0,31,0.00,,,0.00,0,Wunderground v.1.15,2013-08-18 03:29:00,
2013-08-17 20:40:00,80.7,48.1,29.75,ESE,114,2.0,7.0,32,0.00,,,0.00,0,Wunderground v.1.15,2013-08-18 03:40:00,
2013-08-17 20:49:00,80.2,48.5,29.75,ESE,115,2.0,7.0,33,0.00,,,0.00,0,Wunderground v.1.15,2013-08-18 03:49:00,
2013-08-17 21:00:00,79.5,47.9,29.76,ESE,115,3.0,3.0,33,0.00,,,0.00,0,Wunderground v.1.15,2013-08-18 04:00:00,
2013-08-17 21:09:00,79.1,48.3,29.76,ESE,115,1.0,1.0,34,0.00,,,0.00,0,Wunderground v.1.15,2013-08-18 04:09:00,
2013-08-17 21:20:00,78.7,48.0,29.76,ESE,115,0.0,7.0,34,0.00,,,0.00,0,Wunderground v.1.15,2013-08-18 04:20:00,
2013-08-17 21:30:00,78.4,48.5,29.77,ESE,115,0.0,7.0,35,0.00,,,0.00,0,Wunderground v.1.15,2013-08-18 04:30:00,
2013-08-17 21:40:00,77.9,48.8,29.77,ESE,115,0.0,7.0,36,0.00,,,0.00,0,Wunderground v.1.15,2013-08-18 04:40:00,
2013-08-17 21:50:00,77.6,48.5,29.77,ESE,115,0.0,7.0,36,0.00,,,0.00,0,Wunderground v.1.15,2013-08-18 04:50:00,
2013-08-17 22:00:00,77.3,48.3,29.77,ESE,115,0.0,7.0,36,0.00,,,0.00,0,Wunderground v.1.15,2013-08-18 05:00:00,
2013-08-17 22:10:00,76.9,48.6,29.77,ESE,115,0.0,7.0,37,0.00,,,0.00,0,Wunderground v.1.15,2013-08-18 05:10:00,
2013-08-17 22:20:00,76.3,47.4,29.78,ESE,117,0.0,7.0,36,0.00,,,0.00,0,Wunderground v.1.15,2013-08-18 05:20:00,
2013-08-17 22:30:00,76.1,47.9,29.78,ESE,117,2.0,7.0,37,0.00,,,0.00,0,Wunderground v.1.15,2013-08-18 05:30:00,
2013-08-17 22:40:00,75.7,47.6,29.78,ESE,105,3.0,7.0,37,0.00,,,0.00,0,Wunderground v.1.15,2013-08-18 05:40:00,
2013-08-17 22:50:00,76.1,47.9,29.77,ESE,117,4.0,7.0,37,0.00,,,0.00,0,Wunderground v.1.15,2013-08-18 05:50:00,
2013-08-17 22:59:00,75.7,47.6,29.77,ESE,123,4.0,4.0,37,0.00,,,0.00,0,Wunderground v.1.15,2013-08-18 05:59:00,
2013-08-17 23:10:00,75.4,47.3,29.78,ESE,121,3.0,3.0,37,0.00,,,0.00,0,Wunderground v.1.15,2013-08-18 06:10:00,
2013-08-17 23:19:00,75.4,47.3,29.78,ESE,120,1.0,1.0,37,0.00,,,0.00,0,Wunderground v.1.15,2013-08-18 06:19:00,
2013-08-17 23:30:00,75.0,47.7,29.78,ESE,121,0.0,7.0,38,0.00,,,0.00,0,Wunderground v.1.15,2013-08-18 06:30:00,
2013-08-17 23:39:00,74.4,47.8,29.78,ESE,119,0.0,7.0,39,0.00,,,0.00,0,Wunderground v.1.15,2013-08-18 06:39:00,
2013-08-17 23:50:00,73.8,48.0,29.78,ESE,121,0.0,7.0,40,0.00,,,0.00,0,Wunderground v.1.15,2013-08-18 06:50:00,
2013-08-17 23:59:00,73.4,46.9,29.78,ESE,121,0.0,7.0,39,0.00,,,0.00,0,Wunderground v.1.15,2013-08-18 06:59:00,